When you browse on this site, cookies collect data to enhance your experience and personalize the content and advertising you see.
Visit our Privacy Policy to learn more. By continuing to use the site, you agree to this use of cookies and data.
  • In Latvia
  • List of Countries
  • For 7 days
  • Water Temperature
  • Satellite Maps
  • Weather Map
  • Weather Widgets
  • user-avatar
    Login

    Hourly Weather Balceana

    Today, 24 March, Sunday

    Time Temperature Precipitation Wind Pressure Humidity
    00:00 +5°C° 0 mm 2 mps 759 mmHg 57%
    01:00 +6°C° 0 mm 1 mps 759 mmHg 58%
    02:00 +5°C° 0 mm 1 mps 759 mmHg 59%
    03:00 +5°C° 0 mm 1 mps 759 mmHg 60%
    04:00 +5°C° 0 mm 1 mps 759 mmHg 61%
    05:00 +5°C° 0 mm 1 mps 758 mmHg 62%
    06:00 +5°C° 0 mm 1 mps 758 mmHg 58%
    07:00 +6°C° 0 mm 1 mps 758 mmHg 55%
    08:00 +7°C° 0 mm 1 mps 758 mmHg 51%
    09:00 +9°C° 0 mm 1 mps 757 mmHg 44%
    10:00 +10°C° 0 mm 2 mps 757 mmHg 38%
    11:00 +12°C° 0 mm 2 mps 757 mmHg 31%
    12:00 +12°C° 0 mm 3 mps 756 mmHg 29%
    13:00 +14°C° 0 mm 3 mps 756 mmHg 26%
    14:00 +16°C° 0 mm 3 mps 755 mmHg 23%
    15:00 +16°C° 0 mm 3 mps 755 mmHg 24%
    16:00 +16°C° 0 mm 3 mps 755 mmHg 25%
    17:00 +16°C° 0 mm 3 mps 754 mmHg 26%
    18:00 +14°C° 0 mm 3 mps 754 mmHg 33%
    19:00 +14°C° 0 mm 2 mps 754 mmHg 40%
    20:00 +13°C° 0 mm 2 mps 755 mmHg 47%
    21:00 +13°C° 0 mm 2 mps 754 mmHg 56%
    22:00 +12°C° 0 mm 2 mps 754 mmHg 64%
    23:00 +11°C° 0 mm 1 mps 754 mmHg 72%

    Tomorrow, 25 March, Monday

    Time Temperature Precipitation Wind Pressure Humidity
    00:00 +11°C° 0 mm 1 mps 754 mmHg 75%
    01:00 +10°C° 0 mm 1 mps 754 mmHg 77%
    02:00 +10°C° 0 mm 1 mps 754 mmHg 79%
    03:00 +8°C° 0 mm 0 mps 753 mmHg 80%
    04:00 +8°C° 0 mm 0 mps 752 mmHg 81%
    05:00 +8°C° 0 mm 0 mps 752 mmHg 82%
    06:00 +9°C° 0 mm 1 mps 751 mmHg 78%
    07:00 +9°C° 0 mm 2 mps 751 mmHg 74%
    08:00 +10°C° 0 mm 3 mps 750 mmHg 70%
    09:00 +12°C° 0 mm 4 mps 750 mmHg 64%
    10:00 +14°C° 0 mm 5 mps 750 mmHg 58%
    11:00 +15°C° 0 mm 6 mps 749 mmHg 52%
    12:00 +16°C° 0 mm 5 mps 748 mmHg 50%
    13:00 +17°C° 0 mm 4 mps 748 mmHg 47%
    14:00 +18°C° 0 mm 3 mps 747 mmHg 45%
    15:00 +18°C° 0 mm 3 mps 747 mmHg 46%
    16:00 +18°C° 0 mm 3 mps 747 mmHg 47%
    17:00 +18°C° 0 mm 3 mps 747 mmHg 48%
    18:00 +16°C° 0 mm 3 mps 747 mmHg 56%
    19:00 +13°C° 0 mm 3 mps 747 mmHg 63%
    20:00 +12°C° 0 mm 4 mps 748 mmHg 70%
    21:00 +11°C° 0 mm 3 mps 748 mmHg 73%
    22:00 +10°C° 0 mm 3 mps 749 mmHg 75%
    23:00 +9°C° 0 mm 3 mps 749 mmHg 77%

    Day after tomorrow, 26 March, Tuesday

    Time Temperature Precipitation Wind Pressure Humidity
    00:00 +9°C° 0.3 mm 3 mps 749 mmHg 78%
    01:00 +8°C° 0.3 mm 3 mps 750 mmHg 80%
    02:00 +8°C° 0.3 mm 3 mps 750 mmHg 81%
    03:00 +8°C° 0.8 mm 3 mps 750 mmHg 82%
    04:00 +7°C° 0.8 mm 3 mps 750 mmHg 83%
    05:00 +7°C° 0.8 mm 3 mps 750 mmHg 83%
    06:00 +7°C° 0.2 mm 3 mps 751 mmHg 79%
    07:00 +7°C° 0.2 mm 4 mps 752 mmHg 74%
    08:00 +7°C° 0.2 mm 5 mps 752 mmHg 69%
    09:00 +8°C° 0 mm 5 mps 753 mmHg 66%
    10:00 +9°C° 0 mm 5 mps 753 mmHg 63%
    11:00 +10°C° 0 mm 6 mps 754 mmHg 60%
    12:00 +10°C° 0 mm 6 mps 754 mmHg 57%
    13:00 +10°C° 0 mm 6 mps 754 mmHg 54%
    14:00 +10°C° 0 mm 6 mps 754 mmHg 51%
    15:00 +10°C° 0 mm 6 mps 754 mmHg 49%
    16:00 +10°C° 0 mm 6 mps 754 mmHg 46%
    17:00 +10°C° 0 mm 6 mps 754 mmHg 44%
    18:00 +9°C° 0 mm 5 mps 755 mmHg 47%
    19:00 +8°C° 0 mm 5 mps 756 mmHg 51%
    20:00 +7°C° 0 mm 4 mps 756 mmHg 54%
    21:00 +6°C° 0 mm 4 mps 757 mmHg 56%
    22:00 +6°C° 0 mm 4 mps 757 mmHg 58%
    23:00 +5°C° 0 mm 4 mps 757 mmHg 60%

    27 March, Wednesday

    Time Temperature Precipitation Wind Pressure Humidity
    00:00 +4°C° 0 mm 4 mps 758 mmHg 61%
    01:00 +4°C° 0 mm 3 mps 758 mmHg 63%
    02:00 +3°C° 0 mm 3 mps 758 mmHg 65%
    03:00 +3°C° 0 mm 3 mps 758 mmHg 68%
    04:00 +2°C° 0 mm 3 mps 758 mmHg 70%
    05:00 +2°C° 0 mm 3 mps 759 mmHg 73%
    06:00 +3°C° 0 mm 4 mps 759 mmHg 68%
    07:00 +4°C° 0 mm 4 mps 759 mmHg 63%
    08:00 +5°C° 0 mm 5 mps 760 mmHg 59%
    09:00 +6°C° 0 mm 5 mps 760 mmHg 55%
    10:00 +7°C° 0 mm 5 mps 760 mmHg 52%
    11:00 +8°C° 0 mm 5 mps 760 mmHg 48%
    12:00 +8°C° 0 mm 5 mps 760 mmHg 45%
    13:00 +8°C° 0 mm 5 mps 761 mmHg 43%
    14:00 +8°C° 0 mm 5 mps 761 mmHg 40%
    15:00 +8°C° 0 mm 5 mps 761 mmHg 38%
    16:00 +8°C° 0 mm 5 mps 761 mmHg 35%
    17:00 +8°C° 0 mm 4 mps 761 mmHg 33%
    18:00 +7°C° 0 mm 4 mps 762 mmHg 35%
    19:00 +7°C° 0 mm 3 mps 762 mmHg 36%
    20:00 +5°C° 0 mm 2 mps 763 mmHg 38%
    21:00 +5°C° 0 mm 2 mps 763 mmHg 38%
    22:00 +5°C° 0 mm 1 mps 763 mmHg 38%
    23:00 +5°C° 0 mm 1 mps 763 mmHg 38%

    28 March, Thursday

    Time Temperature Precipitation Wind Pressure Humidity
    00:00 +5°C° 0 mm 1 mps 764 mmHg 39%
    01:00 +3°C° 0 mm 0 mps 764 mmHg 39%
    02:00 +3°C° 0 mm 0 mps 764 mmHg 40%
    03:00 +3°C° 0 mm 0 mps 764 mmHg 40%
    04:00 +2°C° 0 mm 0 mps 764 mmHg 41%
    05:00 +2°C° 0 mm 0 mps 764 mmHg 42%
    06:00 +3°C° 0 mm 0 mps 764 mmHg 40%
    07:00 +4°C° 0 mm 0 mps 764 mmHg 38%
    08:00 +5°C° 0 mm 0 mps 765 mmHg 36%
    09:00 +6°C° 0 mm 0 mps 765 mmHg 33%
    10:00 +8°C° 0 mm 0 mps 765 mmHg 30%
    11:00 +9°C° 0 mm 0 mps 765 mmHg 27%
    12:00 +10°C° 0 mm 0 mps 764 mmHg 26%
    13:00 +10°C° 0 mm 0 mps 764 mmHg 25%
    14:00 +11°C° 0 mm 0 mps 764 mmHg 24%
    15:00 +12°C° 0 mm 1 mps 764 mmHg 24%
    16:00 +12°C° 0 mm 1 mps 763 mmHg 24%
    17:00 +11°C° 0 mm 1 mps 763 mmHg 25%
    18:00 +11°C° 0 mm 1 mps 763 mmHg 28%
    19:00 +10°C° 0 mm 1 mps 764 mmHg 31%
    20:00 +9°C° 0 mm 1 mps 764 mmHg 35%
    21:00 +8°C° 0 mm 1 mps 764 mmHg 36%
    22:00 +7°C° 0 mm 0 mps 764 mmHg 37%
    23:00 +6°C° 0 mm 0 mps 764 mmHg 38%

    29 March, Friday

    Time Temperature Precipitation Wind Pressure Humidity
    00:00 +6°C° 0 mm 0 mps 764 mmHg 40%
    01:00 +5°C° 0 mm 0 mps 764 mmHg 41%
    02:00 +5°C° 0 mm 0 mps 764 mmHg 43%
    03:00 +5°C° 0 mm 0 mps 764 mmHg 43%
    04:00 +5°C° 0 mm 1 mps 764 mmHg 44%
    05:00 +5°C° 0 mm 1 mps 764 mmHg 45%
    06:00 +6°C° 0 mm 1 mps 764 mmHg 42%
    07:00 +7°C° 0 mm 1 mps 764 mmHg 40%
    08:00 +7°C° 0 mm 2 mps 764 mmHg 38%
    09:00 +9°C° 0 mm 2 mps 764 mmHg 37%
    10:00 +11°C° 0 mm 3 mps 764 mmHg 37%
    11:00 +12°C° 0 mm 3 mps 763 mmHg 36%
    12:00 +13°C° 0 mm 4 mps 763 mmHg 36%
    13:00 +14°C° 0 mm 4 mps 763 mmHg 36%
    14:00 +14°C° 0 mm 4 mps 762 mmHg 36%
    15:00 +14°C° 0 mm 4 mps 762 mmHg 38%
    16:00 +14°C° 0 mm 4 mps 761 mmHg 40%
    17:00 +14°C° 0 mm 5 mps 761 mmHg 42%
    18:00 +13°C° 0 mm 4 mps 761 mmHg 48%
    19:00 +11°C° 0 mm 3 mps 761 mmHg 53%
    20:00 +10°C° 0 mm 3 mps 761 mmHg 59%
    21:00 +10°C° 0 mm 3 mps 762 mmHg 62%
    22:00 +9°C° 0 mm 3 mps 762 mmHg 64%
    23:00 +9°C° 0 mm 3 mps 762 mmHg 66%
    Show more